Location: UMBC
(39.2555°N, 76.7093°W)
Time: 12:43:15
(UTC+02:00)

Amateur Radio Satellites - All Passes

Search period start: 29 July 2014 12:13
Search period end: 30 July 2014 12:13
Location: UMBC, 39.2555°N, 76.7093°W

Satellite Date Start Highest point End Downlink Frequencies (MHz)
Time Altitude Azimuth
AO-7 29 Jul 12:37:54 12:45:49 50° 296° (WNW) 12:53:41 29.400 - 29.500 MHz
Uosat F 29 Jul 12:44:32 12:48:01 19° 296° (WNW) 12:51:30 435.120 FM
ISS 29 Jul 12:59:55 13:03:12 50° 223° (SW) 13:06:27 145.800 FM
MaSat-1 29 Jul 13:00:26 13:05:44 63° 63° (ENE) 13:10:41 437.345 MHz
JAS-2 29 Jul 13:02:16 13:07:55 47° 98° (E) 13:13:02 435.800 - 435.900 CW/SSB, 435.910 FM
KITSAT 1 29 Jul 13:20:37 13:28:37 63° 304° (WNW) 13:36:40 435.175 FM
STRAND 1 29 Jul 13:23:55 13:29:00 61° 259° (WSW) 13:34:07 ?
Hamsat 29 Jul 13:26:25 13:30:41 62° 285° (WNW) 13:34:57 145.90 MHz
PANSAT 29 Jul 13:30:50 13:33:13 16° 185° (S) 13:35:35 not established
SO-67 29 Jul 13:48:59 13:52:07 31° 97° (E) 13:55:13 435.3500 MHz FM
Saudisat 1A 29 Jul 14:05:45 14:10:10 83° 302° (WNW) 14:14:37 436.775 MHz
PCSat 29 Jul 14:25:54 14:27:05 11° 38° (NE) 14:28:16 145.825 MHz
AO-7 29 Jul 14:35:22 14:36:36 10° 317° (NW) 14:37:51 29.400 - 29.500 MHz
MaSat-1 29 Jul 14:39:22 14:42:26 16° 260° (W) 14:45:23 437.345 MHz
JAS-2 29 Jul 14:48:07 14:52:35 23° 298° (WNW) 14:56:45 435.800 - 435.900 CW/SSB, 435.910 FM
HO-68 29 Jul 15:09:00 15:14:33 24° 94° (E) 15:20:03 435.675 MHz FM
KITSAT 1 29 Jul 15:20:43 15:25:48 18° 327° (NNW) 15:30:54 435.175 FM
SO-67 29 Jul 15:23:05 15:24:54 14° 292° (WNW) 15:26:43 435.3500 MHz FM
Sapphire 29 Jul 15:33:14 15:38:01 30° 52° (NE) 15:42:45 437.095 MHz 1200 baud AX-25 AFSK
UKube-1 29 Jul 15:42:39 15:46:08 23° 96° (E) 15:49:35 145.840 MHz, 145.915 MHz
Saudisat 1A 29 Jul 15:48:48 15:50:27 12° 320° (NW) 15:52:07 436.775 MHz
PCSat 29 Jul 16:06:18 16:11:41 59° 59° (ENE) 16:17:01 145.825 MHz
Oscar 11 29 Jul 16:27:05 16:31:08 38° 98° (E) 16:35:10 145.825 FM, Beacon 2401.500 USB
FUNcube-1 29 Jul 16:49:38 16:53:01 23° 95° (E) 16:56:25 145.950 - 145.970 MHz USB
HO-68 29 Jul 16:55:38 17:02:39 61° 291° (WNW) 17:09:38 435.675 MHz FM
Sapphire 29 Jul 17:16:30 17:21:29 38° 250° (WSW) 17:26:25 437.095 MHz 1200 baud AX-25 AFSK
UKube-1 29 Jul 17:18:33 17:22:19 29° 291° (WNW) 17:26:04 145.840 MHz, 145.915 MHz
PCSat 29 Jul 17:51:02 17:54:33 18° 255° (WSW) 17:58:04 145.825 MHz
Oscar 11 29 Jul 18:04:03 18:07:02 18° 293° (WNW) 18:10:00 145.825 FM, Beacon 2401.500 USB
FUNcube-1 29 Jul 18:25:53 18:29:22 26° 290° (WNW) 18:32:53 145.950 - 145.970 MHz USB
JAS-1B 29 Jul 18:25:58 18:28:22 11° 44° (NE) 18:30:47 435.800 - 435.900 CW/SSB
Oscar 19 29 Jul 18:30:19 18:32:52 14° 61° (ENE) 18:35:24 437.125 CW, 437.150 USB
HO-68 29 Jul 18:47:04 18:48:55 11° 310° (NW) 18:50:46 435.675 MHz FM
SO-50 29 Jul 18:52:05 18:56:32 84° 121° (ESE) 19:01:06 436.795 FM
Oscar 16 29 Jul 18:56:50 19:01:01 26° 67° (ENE) 19:05:12 437.025 USB, Beacon 2401.1428
RS-15 29 Jul 18:59:18 19:09:38 45° 109° (ESE) 19:19:43 29.354 - 29.394 USB, Beacon 29.352 USB
ITAMSAT 1 29 Jul 19:19:12 19:22:50 20° 64° (ENE) 19:26:28 435.822 SSB
KITSAT 1 29 Jul 19:20:53 19:25:27 16° 30° (NNE) 19:29:59 435.175 FM
Uribyol 2 29 Jul 19:37:33 19:42:01 30° 67° (ENE) 19:46:29 436.500 FM
AO-27 29 Jul 19:37:34 19:42:00 29° 67° (ENE) 19:46:26 436.795 MHz FM
Gurwin Techsat 1B 29 Jul 20:03:04 20:06:55 21° 64° (ENE) 20:10:46 435.225 FM
Oscar 19 29 Jul 20:06:29 20:11:34 72° 258° (WSW) 20:16:42 437.125 CW, 437.150 USB
JAS-1B 29 Jul 20:07:51 20:16:15 47° 65° (ENE) 20:25:27 435.800 - 435.900 CW/SSB
AO-Echo 29 Jul 20:19:04 20:24:20 72° 75° (ENE) 20:29:39 ?
SO-50 29 Jul 20:35:26 20:37:44 14° 320° (NW) 20:40:04 436.795 FM
Oscar 16 29 Jul 20:35:31 20:40:11 36° 262° (W) 20:44:53 437.025 USB, Beacon 2401.1428
UOSAT-12 29 Jul 20:50:24 20:54:59 86° 302° (WNW) 20:59:42 437.025 FM, 437.400 FM
ITAMSAT 1 29 Jul 20:56:51 21:01:55 52° 260° (W) 21:07:01 435.822 SSB
RS-15 29 Jul 21:11:02 21:21:46 52° 311° (NW) 21:32:24 29.354 - 29.394 USB, Beacon 29.352 USB
KITSAT 1 29 Jul 21:14:59 21:22:54 55° 54° (NE) 21:30:45 435.175 FM
TMSAT-1 29 Jul 21:16:26 21:21:42 71° 74° (ENE) 21:26:59 436.925 FM
AO-27 29 Jul 21:16:42 21:21:23 33° 263° (W) 21:26:05 436.795 MHz FM
Uribyol 2 29 Jul 21:16:48 21:21:23 32° 263° (W) 21:26:00 436.500 FM
Gurwin Techsat 1B 29 Jul 21:41:22 21:46:30 49° 260° (W) 21:51:39 435.225 FM
AO-7 29 Jul 21:43:05 21:50:52 45° 63° (ENE) 21:58:39 29.400 - 29.500 MHz
JAS-1B 29 Jul 21:58:18 22:06:36 46° 265° (W) 22:15:54 435.800 - 435.900 CW/SSB
AO-Echo 29 Jul 22:01:05 22:03:35 13° 270° (W) 22:06:06 ?
Uosat F 29 Jul 22:16:53 22:21:50 61° 73° (ENE) 22:26:49 435.120 FM
Saudisat 1A 29 Jul 22:33:34 22:37:55 56° 55° (NE) 22:42:14 436.775 MHz
UOSAT-12 29 Jul 22:33:37 22:35:52 13° 321° (NW) 22:38:08 437.025 FM, 437.400 FM
TMSAT-1 29 Jul 22:59:40 23:02:06 13° 270° (W) 23:04:34 436.925 FM
KITSAT 1 29 Jul 23:10:57 23:17:54 33° 253° (WSW) 23:24:49 435.175 FM
OPAL 29 Jul 23:11:22 23:16:26 67° 104° (ESE) 23:21:33 ?
JAS-2 29 Jul 23:12:24 23:18:20 25° 63° (ENE) 23:23:58 435.800 - 435.900 CW/SSB, 435.910 FM
RS-15 29 Jul 23:30:01 23:37:32 20° 341° (NNW) 23:45:04 29.354 - 29.394 USB, Beacon 29.352 USB
AO-7 29 Jul 23:35:56 23:43:38 40° 261° (W) 23:51:24 29.400 - 29.500 MHz
Uosat F 29 Jul 23:58:17 00:01:00 15° 268° (W) 00:03:44 435.120 FM
Saudisat 1A 30 Jul 00:14:45 00:17:00 14° 251° (WSW) 00:19:16 436.775 MHz
Hamsat 30 Jul 00:18:33 00:22:43 80° 76° (ENE) 00:26:55 145.90 MHz
OPAL 30 Jul 00:51:54 00:54:46 15° 300° (WNW) 00:57:39 ?
JAS-2 30 Jul 00:54:59 01:02:47 70° 258° (WSW) 01:10:08 435.800 - 435.900 CW/SSB, 435.910 FM
STRAND 1 30 Jul 01:35:40 01:40:38 49° 100° (E) 01:45:32 ?
HO-68 30 Jul 01:38:16 01:42:40 18° 55° (NE) 01:47:04 435.675 MHz FM
RS-15 30 Jul 01:48:13 01:55:48 20° 19° (NNE) 02:03:27 29.354 - 29.394 USB, Beacon 29.352 USB
SO-67 30 Jul 01:53:42 01:57:01 44° 261° (W) 02:00:22 435.3500 MHz FM
UKube-1 30 Jul 02:37:46 02:40:51 19° 66° (ENE) 02:43:56 145.840 MHz, 145.915 MHz
JAS-2 30 Jul 02:46:33 02:48:42 11° 274° (W) 02:50:50 435.800 - 435.900 CW/SSB, 435.910 FM
MaSat-1 30 Jul 02:51:07 02:54:37 30° 105° (ESE) 02:58:37 437.345 MHz
STRAND 1 30 Jul 03:15:51 03:19:26 20° 296° (WNW) 03:23:00 ?
Oscar 11 30 Jul 03:21:29 03:25:05 27° 69° (ENE) 03:28:42 145.825 FM, Beacon 2401.500 USB
HO-68 30 Jul 03:22:14 03:29:25 90° 253° (WSW) 03:36:38 435.675 MHz FM
SO-50 30 Jul 03:24:36 03:29:18 57° 55° (NE) 03:34:02 436.795 FM
UOSAT-12 30 Jul 03:44:06 03:44:37 10° 36° (NE) 03:45:09 437.025 FM, 437.400 FM
FUNcube-1 30 Jul 03:45:53 03:48:49 18° 67° (ENE) 03:51:43 145.950 - 145.970 MHz USB
RS-15 30 Jul 04:00:51 04:11:35 53° 49° (NE) 04:22:37 29.354 - 29.394 USB, Beacon 29.352 USB
UKube-1 30 Jul 04:12:43 04:16:46 37° 261° (W) 04:20:51 145.840 MHz, 145.915 MHz
MaSat-1 30 Jul 04:28:26 04:31:56 25° 307° (NW) 04:35:53 437.345 MHz
Oscar 11 30 Jul 04:57:41 05:01:13 25° 265° (W) 05:04:45 145.825 FM, Beacon 2401.500 USB
SO-50 30 Jul 05:06:28 05:09:26 16° 251° (WSW) 05:12:24 436.795 FM
HO-68 30 Jul 05:14:19 05:17:57 14° 270° (W) 05:21:37 435.675 MHz FM
FUNcube-1 30 Jul 05:20:57 05:24:57 37° 262° (W) 05:28:54 145.950 - 145.970 MHz USB
UOSAT-12 30 Jul 05:21:05 05:25:46 60° 56° (NE) 05:30:23 437.025 FM, 437.400 FM
ISS 30 Jul 05:41:10 05:44:30 86° 319° (NW) 05:47:52 145.800 FM
RS-15 30 Jul 06:13:30 06:23:47 46° 250° (WSW) 06:34:29 29.354 - 29.394 USB, Beacon 29.352 USB
Sapphire 30 Jul 06:14:13 06:18:57 32° 109° (ESE) 06:23:43 437.095 MHz 1200 baud AX-25 AFSK
PCSat 30 Jul 06:46:46 06:52:07 69° 115° (ESE) 06:57:31 145.825 MHz
UOSAT-12 30 Jul 07:02:48 07:05:24 15° 252° (WSW) 07:07:58 437.025 FM, 437.400 FM
ISS 30 Jul 07:19:21 07:21:38 17° 340° (NNW) 07:23:56 145.800 FM
Uribyol 2 30 Jul 07:54:02 07:54:58 10° 89° (E) 07:55:55 436.500 FM
AO-27 30 Jul 07:55:01 07:55:14 10° 89° (E) 07:55:28 436.795 MHz FM
Sapphire 30 Jul 07:57:23 08:02:18 35° 306° (NW) 08:07:14 437.095 MHz 1200 baud AX-25 AFSK
JAS-1B 30 Jul 07:59:05 08:02:59 13° 81° (E) 08:06:38 435.800 - 435.900 CW/SSB
Oscar 19 30 Jul 08:19:13 08:24:10 44° 99° (E) 08:29:05 437.125 CW, 437.150 USB
AO-Echo 30 Jul 08:28:31 08:32:35 25° 94° (E) 08:36:33 ?
PCSat 30 Jul 08:32:16 08:36:03 19° 314° (NW) 08:39:52 145.825 MHz
Oscar 16 30 Jul 08:47:38 08:52:50 87° 104° (ESE) 08:58:01 437.025 USB, Beacon 2401.1428
OPAL 30 Jul 08:50:06 08:52:16 13° 58° (ENE) 08:54:25 ?
ISS 30 Jul 08:59:17 08:59:28 10° 0° (N) 08:59:39 145.800 FM
ITAMSAT 1 30 Jul 09:10:41 09:15:50 62° 101° (ESE) 09:20:55 435.822 SSB
Uribyol 2 30 Jul 09:29:52 09:35:02 82° 285° (WNW) 09:40:11 436.500 FM
AO-27 30 Jul 09:30:10 09:35:23 85° 285° (WNW) 09:40:33 436.795 MHz FM
TMSAT-1 30 Jul 09:33:48 09:38:27 30° 96° (E) 09:43:04 436.925 FM
JAS-1B 30 Jul 09:45:55 09:55:17 75° 102° (ESE) 10:03:08 435.800 - 435.900 CW/SSB
AO-7 30 Jul 09:48:49 09:52:07 13° 88° (E) 09:55:25 29.400 - 29.500 MHz
Gurwin Techsat 1B 30 Jul 09:58:26 10:03:45 73° 102° (ESE) 10:09:03 435.225 FM
Oscar 19 30 Jul 09:59:17 10:03:12 22° 295° (WNW) 10:07:06 437.125 CW, 437.150 USB
AO-Echo 30 Jul 10:06:51 10:11:25 35° 291° (WNW) 10:15:50 ?
OPAL 30 Jul 10:25:33 10:30:29 77° 255° (WSW) 10:35:28 ?
Uosat F 30 Jul 10:26:38 10:30:18 20° 94° (E) 10:33:55 435.120 FM
Oscar 16 30 Jul 10:29:40 10:31:25 12° 300° (WNW) 10:33:10 437.025 USB, Beacon 2401.1428
ISS 30 Jul 10:34:58 10:37:17 17° 21° (NNE) 10:39:36 145.800 FM
ITAMSAT 1 30 Jul 10:51:40 10:54:47 16° 298° (WNW) 10:57:54 435.822 SSB
MaSat-1 30 Jul 11:12:22 11:13:33 11° 44° (NE) 11:14:44 437.345 MHz
AO-27 30 Jul 11:13:04 11:14:03 11° 302° (WNW) 11:15:02 436.795 MHz FM
Uribyol 2 30 Jul 11:13:33 11:13:39 10° 302° (WNW) 11:13:46 436.500 FM
TMSAT-1 30 Jul 11:13:40 11:18:19 32° 292° (WNW) 11:22:56 436.925 FM
PANSAT 30 Jul 11:26:27 11:28:44 15° 173° (S) 11:31:00 not established
JAS-1B 30 Jul 11:37:25 11:44:42 27° 304° (NW) 11:51:15 435.800 - 435.900 CW/SSB
AO-7 30 Jul 11:37:47 11:46:09 76° 106° (ESE) 11:54:25 29.400 - 29.500 MHz
Gurwin Techsat 1B 30 Jul 11:40:17 11:43:04 15° 299° (WNW) 11:45:51 435.225 FM
KITSAT 1 30 Jul 11:42:07 11:49:35 43° 110° (ESE) 11:57:04 435.175 FM
Hamsat 30 Jul 12:06:33 12:09:11 16° 92° (E) 12:11:49 145.90 MHz
